TimeEDT,TemperatureF,Dew PointF,Humidity,Sea Level PressureIn,VisibilityMPH,Wind Direction,Wind SpeedMPH,Gust SpeedMPH,PrecipitationIn,Events,Conditions,WindDirDegrees,DateUTC
12:15 AM,69.8,66.2,88,29.92,7.0,Calm,Calm,-,N/A,,Scattered Clouds,0,2013-08-28 04:15:00
12:35 AM,69.8,66.2,88,29.91,10.0,Calm,Calm,-,N/A,,Scattered Clouds,0,2013-08-28 04:35:00
12:55 AM,69.8,66.2,88,29.91,3.0,Calm,Calm,-,N/A,,Clear,0,2013-08-28 04:55:00
1:15 AM,69.8,66.2,88,29.90,10.0,Calm,Calm,-,N/A,,Clear,0,2013-08-28 05:15:00
1:35 AM,68.0,64.4,88,29.89,0.2,Calm,Calm,-,N/A,Fog,Fog,0,2013-08-28 05:35:00
1:55 AM,68.0,66.2,94,29.89,0.8,Calm,Calm,-,N/A,,Overcast,0,2013-08-28 05:55:00
2:15 AM,66.2,64.4,94,29.89,5.0,Calm,Calm,-,N/A,,Scattered Clouds,0,2013-08-28 06:15:00
2:35 AM,68.0,66.2,94,29.89,7.0,Calm,Calm,-,N/A,,Scattered Clouds,0,2013-08-28 06:35:00
2:55 AM,66.2,64.4,94,29.88,3.0,Calm,Calm,-,N/A,,Mostly Cloudy,0,2013-08-28 06:55:00
3:15 AM,66.2,62.6,88,29.87,0.5,Calm,Calm,-,N/A,Fog,Fog,0,2013-08-28 07:15:00
3:35 AM,66.2,64.4,94,29.87,10.0,Calm,Calm,-,N/A,,Scattered Clouds,0,2013-08-28 07:35:00
3:55 AM,66.2,64.4,94,29.87,2.5,Calm,Calm,-,N/A,,Scattered Clouds,0,2013-08-28 07:55:00
4:15 AM,66.2,64.4,94,29.87,10.0,Calm,Calm,-,N/A,,Scattered Clouds,0,2013-08-28 08:15:00
4:35 AM,66.2,62.6,88,29.87,5.0,Calm,Calm,-,N/A,,Clear,0,2013-08-28 08:35:00
4:55 AM,64.4,62.6,94,29.87,0.8,Calm,Calm,-,N/A,,Scattered Clouds,0,2013-08-28 08:55:00
5:15 AM,66.2,62.6,88,29.87,2.0,Calm,Calm,-,N/A,,Mostly Cloudy,0,2013-08-28 09:15:00
5:35 AM,64.4,62.6,94,29.87,7.0,Calm,Calm,-,N/A,,Clear,0,2013-08-28 09:35:00
5:55 AM,64.4,62.6,94,29.88,0.5,Calm,Calm,-,N/A,Fog,Fog,0,2013-08-28 09:55:00
6:15 AM,66.2,62.6,88,29.89,1.8,Calm,Calm,-,N/A,,Mostly Cloudy,0,2013-08-28 10:15:00
6:35 AM,66.2,62.6,88,29.89,0.2,Calm,Calm,-,N/A,Fog,Fog,0,2013-08-28 10:35:00
6:45 AM,64.4,64.4,100,29.90,10.0,Calm,Calm,-,N/A,,Scattered Clouds,0,2013-08-28 10:45:00
7:45 AM,69.8,68.0,94,29.90,10.0,Calm,Calm,-,N/A,,Mostly Cloudy,0,2013-08-28 11:45:00
8:45 AM,75.2,69.8,83,29.90,10.0,NE,3.5,-,N/A,,Scattered Clouds,40,2013-08-28 12:45:00
9:45 AM,78.8,69.8,74,29.88,10.0,Calm,Calm,-,N/A,,Clear,0,2013-08-28 13:45:00
10:45 AM,82.4,69.8,66,29.89,10.0,Calm,Calm,-,N/A,,Mostly Cloudy,0,2013-08-28 14:45:00
11:45 AM,80.6,71.6,74,29.88,5.0,West,4.6,-,N/A,,Overcast,280,2013-08-28 15:45:00
12:45 PM,78.8,69.8,74,29.87,3.0,West,10.4,-,N/A,,Overcast,270,2013-08-28 16:45:00
1:45 PM,75.2,71.6,89,29.89,3.0,WSW,5.8,-,N/A,,Overcast,240,2013-08-28 17:45:00
2:45 PM,75.2,71.6,89,29.89,3.0,SW,5.8,-,N/A,Rain,Light Rain,220,2013-08-28 18:45:00
3:45 PM,75.2,71.6,89,29.88,2.5,SSW,5.8,-,N/A,Rain,Light Rain,210,2013-08-28 19:45:00
4:45 PM,75.2,71.6,89,29.87,3.0,Calm,Calm,-,N/A,Rain,Light Rain,0,2013-08-28 20:45:00
5:45 PM,75.2,71.6,89,29.87,5.0,Calm,Calm,-,N/A,Rain,Light Rain,0,2013-08-28 21:45:00
6:45 PM,75.2,71.6,89,29.87,5.0,Calm,Calm,-,N/A,,Overcast,0,2013-08-28 22:45:00
7:45 PM,75.2,71.6,89,29.87,3.0,Calm,Calm,-,N/A,,Overcast,0,2013-08-28 23:45:00
8:45 PM,71.6,69.8,94,29.88,3.0,Calm,Calm,-,N/A,,Overcast,0,2013-08-29 00:45:00
9:45 PM,73.4,71.6,94,29.91,3.0,Calm,Calm,-,N/A,,Overcast,0,2013-08-29 01:45:00
10:55 PM,73.4,69.8,88,29.90,2.0,Calm,Calm,-,N/A,,Scattered Clouds,0,2013-08-29 02:55:00
11:15 PM,73.4,71.6,94,29.90,3.0,North,3.5,-,N/A,,Mostly Cloudy,350,2013-08-29 03:15:00
11:35 PM,73.4,69.8,88,29.90,2.5,Calm,Calm,-,N/A,,Scattered Clouds,0,2013-08-29 03:35:00
11:55 PM,71.6,69.8,94,29.90,0.8,Calm,Calm,-,N/A,,Mist,0,2013-08-29 03:55:00